Theta_e
344 343 343 344 344 343 344 343 343 342 342 343 343 342 341 341 340 339 339 338 338 338 339 338 338 337 337 336 335 333 332 331 329 328 328 328 328 327 326 324 324 324 323 322 320 319 319 318 318 317 316 314 314 313 312 312 312 311 312 311 312 313 313 312 312 314 314 312 311 309 306 305 305 304 304 304 304 302 301 302 303 301 301 302 302
344 343 343 343 344 344 343 343 342 342 342 343 342 342 341 340 340 339 338 338 338 338 338 338 338 337 336 335 334 333 331 330 329 329 329 328 327 326 324 323 323 322 321 320 318 318 317 316 316 315 314 313 313 312 311 310 309 309 309 309 309 311 311 310 310 312 314 312 310 309 307 305 305 304 303 303 304 303 302 302 302 302 301 301 302
343 343 343 343 343 343 343 343 342 342 342 342 341 342 341 340 340 339 338 337 338 338 338 338 337 336 336 335 334 332 331 330 329 329 329 328 326 324 323 322 321 320 319 318 317 317 316 315 315 314 313 313 312 310 309 308 307 308 308 307 308 310 310 310 310 310 313 312 310 308 307 306 305 304 303 302 303 302 301 301 301 301 301 302 302
343 343 343 343 344 344 343 343 342 341 342 342 341 341 341 341 340 339 338 337 338 338 338 337 336 335 335 334 333 332 331 330 329 328 328 327 326 324 322 321 320 319 318 317 316 316 315 315 315 313 312 312 311 309 308 307 306 307 306 306 307 309 309 309 309 309 311 312 310 308 308 307 305 304 303 302 302 302 302 302 302 301 302 302 301
343 343 343 343 344 344 343 342 342 342 342 341 340 341 341 340 339 338 338 338 338 338 337 336 335 335 335 334 333 331 330 329 328 327 326 325 324 323 321 320 318 317 316 316 316 314 314 315 314 312 311 311 310 309 308 307 306 306 306 305 306 307 308 308 309 309 309 309 309 308 307 306 305 304 303 302 302 303 303 304 303 303 303 302 301
343 343 343 343 343 344 343 342 342 342 342 341 340 340 340 339 338 338 338 338 338 337 336 335 335 335 334 334 333 331 330 329 328 327 325 324 323 321 319 317 316 316 316 316 315 314 314 314 313 311 311 311 310 309 308 307 307 306 306 306 306 307 308 308 308 307 307 307 308 308 307 306 305 304 302 302 302 303 303 304 304 304 305 304 302
342 343 343 343 343 343 343 342 342 342 341 340 339 339 340 338 338 338 338 338 338 337 336 335 334 334 334 334 332 331 330 328 327 326 324 323 321 319 317 316 315 316 315 314 314 314 313 313 312 311 310 311 310 309 309 308 307 307 307 307 307 308 307 305 305 306 307 307 308 307 306 305 304 303 303 302 302 303 303 303 303 304 304 304 303
342 342 342 342 343 343 342 342 342 341 341 340 339 339 339 338 338 338 338 338 337 337 336 335 334 334 334 333 332 330 328 327 326 325 323 322 320 318 316 315 315 315 314 313 313 313 312 312 311 310 309 310 309 309 308 308 308 307 307 308 307 306 305 304 305 306 306 306 306 305 305 305 303 303 304 303 303 305 305 304 303 303 303 304 304
342 342 342 342 342 343 342 342 341 341 340 339 339 339 339 338 338 338 338 338 337 336 335 334 333 333 333 332 330 328 328 327 326 324 323 321 319 317 316 315 314 314 313 313 312 312 311 311 310 310 309 309 308 307 307 307 307 308 308 308 306 304 304 305 306 305 305 305 305 305 304 304 303 303 304 304 304 306 305 304 303 304 304 304 304
342 342 342 342 342 342 342 341 341 341 340 339 338 339 338 338 338 337 337 337 336 335 334 333 333 332 331 330 328 327 327 326 325 324 322 320 318 316 315 314 314 313 312 312 312 311 310 310 310 308 306 304 303 303 303 303 303 307 308 306 305 305 305 306 305 305 305 305 304 304 303 303 303 304 303 304 305 305 304 304 304 304 304 304 304
342 342 342 342 341 342 342 341 340 340 339 338 338 338 338 337 337 337 337 337 335 334 333 332 332 331 330 328 327 327 326 325 326 325 322 319 317 316 315 314 313 312 312 312 312 311 310 310 309 305 302 301 301 300 301 301 301 303 303 301 302 304 306 306 306 305 304 304 303 304 303 303 304 303 303 304 305 304 304 304 304 304 304 304 304
342 342 342 342 342 342 341 340 340 339 338 338 338 338 338 337 337 337 336 336 334 333 332 332 331 330 328 327 327 327 326 326 328 326 321 318 316 316 316 314 313 313 312 312 312 311 310 310 309 306 303 303 304 301 301 301 301 301 301 300 299 300 302 304 305 305 304 303 303 303 303 302 303 304 304 304 304 305 305 305 305 305 305 305 305
341 342 342 342 342 342 341 340 339 338 338 338 337 337 337 337 337 336 336 335 333 332 332 331 330 329 328 327 327 326 326 328 328 324 321 318 315 315 316 315 314 313 313 312 311 311 310 309 309 308 306 305 305 304 302 301 301 300 300 301 299 299 299 300 301 303 304 304 303 302 302 302 303 304 305 304 304 305 305 305 305 305 305 305 304
341 341 342 342 342 341 340 339 339 338 338 337 337 337 336 336 336 336 335 334 333 332 331 330 328 328 327 326 326 326 326 329 328 323 320 317 313 313 316 315 314 313 312 312 311 311 310 309 309 310 308 306 306 306 305 303 303 302 302 302 302 300 299 297 296 297 299 302 302 301 302 303 303 304 304 304 304 304 304 304 305 305 304 304 303
341 341 342 342 342 340 339 338 338 338 337 336 336 336 336 336 336 336 335 334 333 332 330 329 328 328 327 326 325 325 326 328 327 322 320 317 313 312 315 315 313 313 312 312 311 310 310 309 309 310 310 308 307 307 307 306 306 305 305 305 304 304 301 298 296 296 297 298 300 302 305 305 303 303 305 305 304 304 304 304 304 303 303 303 304
341 342 342 342 341 340 339 338 338 338 336 336 336 335 335 335 335 335 335 334 334 332 330 329 329 328 326 325 325 325 325 327 326 322 320 317 312 312 315 315 313 313 312 311 311 310 310 309 310 310 310 309 307 305 305 307 307 307 306 305 304 304 304 300 296 296 297 296 298 302 305 305 303 302 304 304 304 304 304 303 303 303 304 305 305
341 342 341 341 341 339 339 338 337 337 336 335 335 335 335 335 335 334 334 334 333 332 329 328 328 327 325 324 324 325 325 326 326 322 319 315 312 312 314 314 313 313 313 311 311 310 310 310 310 309 308 308 306 303 302 304 306 306 306 305 304 303 304 301 296 294 295 295 297 300 302 303 303 301 301 301 300 301 302 302 303 304 305 305 304
341 341 341 341 340 339 338 338 337 336 335 335 335 334 334 335 334 333 333 333 332 330 328 327 326 325 325 325 325 324 325 327 326 322 318 315 312 312 314 314 313 313 313 312 311 310 310 310 309 308 308 308 305 302 301 302 305 306 305 305 305 303 302 302 300 297 296 297 299 300 301 302 303 302 301 300 299 299 299 301 302 303 304 304 304
341 341 340 340 339 338 338 337 336 336 335 335 334 334 334 334 332 331 332 332 331 328 327 326 325 324 324 326 326 324 325 327 325 320 318 315 312 313 314 313 313 313 312 311 310 310 310 308 306 307 309 308 304 302 302 302 304 306 305 304 304 303 301 303 303 301 300 301 302 302 303 303 303 303 302 302 301 300 299 300 302 303 303 304 303
340 340 340 339 339 338 337 336 336 335 335 334 334 333 333 332 331 331 330 330 328 327 326 326 325 324 324 325 325 324 325 327 324 320 318 315 312 313 314 313 314 313 312 311 310 310 310 308 305 306 307 307 304 303 303 303 304 305 305 304 303 303 303 303 303 302 302 303 304 305 306 305 304 304 304 303 302 301 299 299 301 303 303 303 303
341 341 340 339 339 338 337 336 336 335 335 334 333 332 331 330 330 330 330 329 328 327 326 325 324 323 324 325 324 323 324 326 324 320 318 315 312 312 314 314 314 313 311 311 310 310 310 309 306 305 305 305 304 303 303 303 303 304 305 304 303 303 303 303 302 300 301 302 303 304 304 303 303 304 304 304 303 302 301 301 302 303 303 302 303
341 341 340 339 338 338 337 336 336 335 334 333 332 332 331 330 330 330 329 329 328 326 325 324 323 323 323 323 323 323 323 325 324 321 318 316 312 311 314 314 313 312 311 311 311 310 309 309 308 305 304 305 304 304 304 303 303 303 303 303 301 300 300 301 301 300 301 302 303 303 302 301 302 303 304 303 303 303 303 303 303 303 303 302 302
341 340 339 338 338 337 337 336 335 335 334 333 332 332 331 330 330 329 329 328 327 326 325 324 323 322 322 321 322 321 321 322 323 322 319 316 311 310 313 313 312 312 312 311 311 310 309 309 309 306 304 305 304 304 304 304 303 303 302 301 299 296 296 299 300 301 302 303 304 304 303 302 302 302 303 303 301 301 302 303 303 303 303 303 302
341 340 338 338 337 337 336 335 335 334 333 332 332 332 331 330 329 329 330 329 328 327 326 324 323 322 321 320 320 320 319 320 322 322 319 316 311 309 311 312 311 311 312 312 311 311 310 310 308 306 304 304 305 304 304 304 303 303 303 301 298 294 295 298 300 301 303 304 305 305 305 304 303 302 302 302 300 300 301 303 303 303 303 303 303
340 340 338 337 337 336 336 335 334 334 333 332 332 331 331 330 329 329 329 328 328 328 326 324 323 322 320 319 319 318 317 317 319 320 318 315 311 309 310 310 309 310 312 313 312 311 311 309 307 305 305 305 304 304 304 304 304 303 303 302 299 296 297 299 301 302 304 305 305 306 305 304 304 303 303 301 300 300 301 302 302 302 303 303 303
340 339 338 337 336 336 335 335 334 333 333 332 332 331 330 329 329 329 329 328 328 329 327 324 323 322 321 320 319 318 317 316 316 317 316 314 311 310 309 309 308 308 310 312 312 310 308 307 306 306 305 305 304 304 304 304 304 303 303 302 300 299 299 301 303 305 306 306 306 306 305 305 304 304 303 302 301 299 299 299 300 301 302 303 303
340 338 338 337 336 335 335 334 334 333 333 332 332 331 330 329 329 328 329 329 328 328 327 324 322 322 321 321 320 317 316 316 315 313 313 312 310 310 309 308 308 308 308 310 310 308 307 307 306 306 306 305 304 304 304 304 304 303 302 302 301 301 302 303 304 306 307 306 306 306 305 305 305 304 303 302 300 299 298 299 300 301 302 302 303
339 338 337 336 335 334 334 333 333 333 332 331 331 330 329 328 328 327 328 328 328 328 326 323 323 324 322 320 319 318 317 317 315 313 312 312 311 310 309 308 308 308 308 310 310 309 307 307 307 306 306 305 304 304 305 304 304 303 303 302 303 303 303 303 304 305 306 307 306 306 305 305 305 304 303 301 300 299 299 299 300 300 300 301 302
338 338 337 335 334 333 333 332 332 332 331 330 330 329 328 328 327 326 326 327 328 327 325 323 324 325 322 319 319 319 319 318 317 317 317 315 313 311 310 309 308 308 309 310 310 309 308 308 308 308 307 306 306 306 306 306 305 306 305 305 305 305 305 305 305 305 306 306 306 306 305 305 305 304 303 302 301 300 300 300 300 301 300 301 302
337 337 336 335 333 332 332 332 332 331 330 329 329 328 327 327 327 326 326 327 327 326 325 324 324 324 322 320 320 322 322 319 319 321 321 317 313 313 312 311 310 309 309 309 309 309 309 309 309 309 309 308 308 307 307 307 307 308 307 307 306 306 306 306 306 306 306 306 306 306 305 305 305 304 304 303 302 301 301 300 300 300 300 301 302
334 334 334 333 332 331 331 332 331 330 330 329 328 325 324 324 326 327 326 326 325 325 325 324 324 324 322 321 321 322 323 321 321 322 322 317 314 313 313 312 311 311 310 308 308 309 309 309 309 309 309 310 309 308 308 308 308 308 308 308 308 307 307 306 306 306 305 305 305 305 305 305 305 305 304 304 303 302 302 301 300 300 300 301 302
333 333 333 333 331 330 331 330 330 330 329 328 326 324 321 320 321 322 324 325 324 323 323 323 323 323 322 323 323 324 322 321 321 322 322 319 315 314 313 312 312 311 310 308 307 308 309 310 310 310 310 310 309 308 308 308 308 308 309 309 308 307 307 306 306 305 305 305 304 304 304 305 304 305 305 303 302 302 302 301 301 302 301 301 302
333 333 333 331 329 329 329 329 329 329 328 326 324 322 320 319 317 316 317 320 321 322 322 321 321 321 321 323 325 325 323 321 321 322 321 319 316 314 313 313 312 311 309 306 306 308 310 310 311 311 310 310 309 309 308 309 309 309 309 308 308 307 306 306 305 305 305 305 304 303 303 303 302 302 303 303 302 301 301 300 301 302 302 302 302
333 332 331 329 328 328 328 328 327 327 326 324 322 320 320 320 317 314 313 315 316 317 318 319 319 319 319 320 322 322 322 321 321 320 319 317 315 314 313 311 310 308 307 306 307 309 310 310 310 310 310 309 309 309 309 309 309 309 309 308 307 307 306 305 305 305 304 304 303 303 302 302 301 301 302 302 302 302 301 301 301 301 301 301 302
332 332 330 328 327 327 327 327 326 325 324 322 321 320 320 319 317 315 314 314 314 313 314 315 316 317 318 318 319 321 320 319 318 317 316 315 314 312 310 307 305 304 305 307 309 310 310 310 310 309 309 309 309 309 310 309 309 308 308 307 306 306 306 305 305 304 303 303 303 303 302 302 302 302 302 302 302 302 301 301 301 301 301 302 302
331 330 328 328 327 326 326 325 325 324 323 321 320 319 318 317 316 316 315 315 314 313 312 312 313 314 315 317 318 318 318 317 316 315 313 312 312 310 307 305 304 305 306 308 310 310 310 309 309 309 309 310 310 310 310 309 308 307 307 306 305 305 305 305 304 303 303 303 303 302 301 302 302 302 302 302 302 302 301 301 301 301 301 301 301
331 329 327 327 327 326 325 325 324 323 322 320 318 317 315 315 315 315 315 314 314 312 310 310 310 310 311 313 314 314 314 314 314 313 312 311 310 309 308 307 308 308 308 309 310 310 309 309 309 309 310 310 310 310 309 308 307 306 306 305 305 304 304 304 303 303 303 302 302 301 301 301 301 302 301 301 301 301 301 301 301 301 300 299 299
327 326 325 325 325 325 324 323 321 320 319 317 316 314 314 314 314 315 314 313 312 310 309 309 309 309 308 308 310 311 312 311 311 310 309 308 307 308 309 310 310 310 310 310 310 310 310 310 310 310 310 310 309 308 307 306 306 305 305 304 304 304 303 303 302 302 302 301 301 301 300 300 300 300 300 300 300 300 301 301 301 300 299 299 299
324 323 323 323 323 322 321 319 317 316 315 314 313 313 313 313 313 313 312 310 310 310 310 309 309 308 306 306 308 310 310 309 307 305 304 303 304 307 310 311 310 310 311 311 310 310 310 311 310 309 308 307 306 306 306 305 305 304 304 303 303 302 302 301 301 301 301 300 300 300 300 300 300 300 300 300 300 300 301 300 300 299 299 299 299
320 321 321 321 320 318 317 315 315 314 314 313 312 312 312 312 312 312 311 310 311 311 311 310 309 308 307 308 310 310 309 307 306 304 303 303 304 307 310 310 310 310 310 310 310 310 310 309 307 306 306 306 306 305 305 305 304 304 303 302 302 301 301 300 300 300 300 300 300 300 300 300 299 299 300 300 301 301 300 300 299 299 299 299 299
317 317 317 318 317 315 314 314 314 313 313 312 312 312 312 311 311 311 310 310 310 310 311 311 310 309 309 310 310 310 309 309 307 306 305 305 306 308 308 308 308 309 309 309 309 308 307 306 306 306 306 305 305 305 304 304 304 302 301 301 300 299 299 299 299 299 299 299 300 300 300 300 300 299 300 300 300 300 300 299 299 298 298 299 299
314 313 313 314 314 313 313 313 312 312 312 312 312 311 311 310 310 310 310 309 310 310 310 310 309 308 309 310 310 310 310 310 308 307 307 306 307 308 308 307 307 307 307 307 307 306 305 305 306 306 305 305 304 304 304 304 303 302 300 299 299 298 298 298 298 298 298 298 298 299 299 299 299 299 299 299 299 299 299 299 298 298 298 299 299
312 312 312 312 312 312 312 312 312 312 312 311 311 311 310 310 310 310 309 309 309 310 309 308 306 306 307 308 309 309 309 308 308 308 308 308 308 308 307 306 306 306 306 305 305 305 305 305 305 305 304 304 304 304 303 303 302 301 300 299 299 298 298 297 298 298 297 297 297 297 297 297 297 298 298 298 298 298 298 298 298 298 298 299 300
311 311 311 311 311 311 311 311 311 311 311 310 310 310 310 310 310 309 309 309 309 309 308 306 305 305 305 305 306 307 307 307 308 308 309 308 307 306 306 305 305 305 305 304 304 304 304 304 303 303 303 303 303 304 303 303 302 300 300 299 299 298 298 297 297 297 297 296 296 296 297 296 297 297 297 297 297 297 297 297 298 298 298 299 300
310 310 310 310 310 309 309 309 309 309 309 310 310 310 310 310 309 309 308 308 309 308 307 305 305 305 304 305 306 307 307 307 308 308 308 307 306 306 305 305 305 304 304 303 303 302 302 302 302 302 302 302 303 303 303 303 302 301 300 300 299 298 298 297 297 297 297 297 297 297 297 296 296 296 297 297 297 297 297 297 297 298 298 299 299
309 309 309 308 308 308 308 308 309 309 310 310 311 310 310 310 309 309 309 308 308 308 307 306 306 306 306 306 306 307 308 308 308 307 307 306 306 305 305 305 305 304 303 302 302 302 302 302 301 301 302 302 303 303 303 303 302 301 301 301 300 300 299 299 298 297 296 296 296 296 296 297 297 298 298 298 298 298 298 298 298 298 298 298 298
309 308 308 308 308 308 309 309 310 311 311 312 311 311 310 310 309 309 309 309 308 308 308 308 307 307 307 306 306 307 307 307 307 306 306 305 305 304 304 304 303 302 302 301 302 302 302 302 302 302 302 302 303 303 303 302 302 301 301 301 301 301 300 300 299 298 297 297 296 296 297 298 299 299 299 299 298 299 298 298 298 298 298 299 299
309 309 309 309 309 310 310 310 311 311 311 311 311 310 310 310 309 309 309 309 309 309 308 308 308 307 307 307 307 307 307 306 306 305 304 304 304 303 302 302 302 302 302 302 302 302 302 302 302 302 301 301 302 302 302 302 302 301 301 301 301 301 301 300 300 299 298 298 297 297 298 299 300 299 299 299 299 299 299 298 298 299 299 299 299
311 311 311 311 311 311 311 312 312 312 311 311 311 311 311 310 310 310 310 310 310 310 310 310 309 309 309 308 308 307 307 307 306 306 305 304 304 303 303 303 303 303 302 302 302 302 302 302 302 302 301 301 301 301 302 302 302 301 301 301 301 300 299 299 299 299 299 299 299 299 299 300 300 300 299 299 299 299 299 299 300 300 300 300 300
312 312 312 312 313 313 313 313 313 313 312 312 312 312 312 312 312 311 311 312 312 311 311 311 311 310 310 309 309 308 308 308 308 308 307 306 306 305 305 304 304 303 303 303 303 303 303 302 302 302 302 301 301 301 302 302 301 301 301 301 300 299 298 298 298 298 298 299 299 300 300 300 300 300 300 299 299 299 299 299 300 300 300 300 300
313 313 313 314 314 314 314 314 314 314 313 313 313 313 312 312 312 312 312 312 312 312 312 311 311 311 310 310 309 309 309 309 309 309 308 308 307 307 306 306 305 304 304 304 303 303 303 303 303 302 302 301 301 301 302 301 301 301 301 300 299 298 298 298 298 297 297 297 298 299 300 300 300 300 300 299 299 300 299 299 299 299 299 300 300
Wind_Speed
34 35 35 33 33 33 34 35 34 33 32 30 29 28 27 27 26 26 25 25 24 22 23 22 21 22 20 19 19 19 21 22 20 18 17 16 15 14 13 13 13 12 11 11 10 10 10 10 10 9 9 8 8 7 7 8 8 8 8 8 9 8 8 10 9 5 5 6 8 9 9 10 9 9 8 7 6 6 5 6 7 8 8 8 10
35 37 36 33 34 34 34 35 36 34 31 31 31 30 28 28 26 26 26 25 23 23 23 22 21 22 21 20 19 19 20 20 20 18 16 15 14 13 13 12 12 12 11 11 11 10 10 11 10 10 9 8 7 7 7 7 7 7 8 7 8 7 8 9 10 8 6 7 9 9 9 10 9 8 7 6 5 5 6 6 7 8 8 7 8
36 36 35 35 35 33 33 35 36 34 32 33 35 32 29 28 27 26 27 25 23 24 23 22 21 21 21 21 20 20 19 19 19 18 16 15 14 13 12 12 12 12 11 11 11 11 11 11 10 10 9 8 8 7 6 7 6 6 7 7 6 6 7 8 9 9 7 7 8 9 9 9 9 7 6 6 5 5 6 7 8 8 8 8 7
35 35 36 35 33 32 33 35 36 36 35 35 36 34 30 28 28 28 26 24 23 23 22 22 23 22 21 21 21 20 20 19 18 18 16 15 14 13 13 13 13 12 12 12 12 12 12 12 11 10 10 9 9 8 7 7 7 7 7 6 6 6 6 8 9 8 6 6 8 9 8 8 8 6 5 5 5 6 7 7 8 8 7 8 8
35 36 36 34 32 32 34 35 36 37 36 35 36 35 32 30 29 29 27 24 24 23 22 22 23 22 22 22 21 21 20 19 18 17 16 15 14 13 13 13 13 12 12 12 12 12 12 12 11 11 11 11 10 9 9 9 8 7 7 6 6 6 5 6 7 5 5 7 8 8 7 6 7 6 5 5 5 7 8 8 8 8 7 8 8
34 36 36 35 34 33 35 36 36 37 37 36 37 36 34 33 31 28 27 25 23 23 23 22 22 23 22 22 22 21 20 19 18 17 16 15 14 14 13 13 13 12 12 12 12 12 12 12 12 12 12 12 11 10 10 10 8 7 6 5 5 5 5 4 4 5 7 8 7 6 7 7 6 5 5 5 5 6 7 7 7 7 6 7 7
35 36 36 37 35 34 38 38 36 38 39 38 38 37 35 32 29 27 27 26 23 23 23 22 23 23 23 23 23 21 20 19 18 17 16 16 15 15 14 14 13 13 13 13 12 13 13 12 13 13 13 12 12 11 11 10 8 6 6 4 4 4 4 3 4 6 7 7 6 6 6 6 6 5 5 5 5 7 7 7 7 6 6 7 7
36 36 36 38 35 35 40 40 36 37 39 39 38 37 33 30 28 27 26 25 24 24 23 22 23 23 23 24 23 21 20 19 18 18 17 16 16 16 16 15 14 13 13 13 13 13 13 13 13 13 13 13 12 11 11 9 8 7 6 4 4 4 2 3 5 6 7 6 6 5 5 5 6 6 5 5 6 6 5 5 7 8 8 8 6
37 36 37 38 36 37 39 37 34 36 38 40 39 36 32 29 28 27 26 25 24 23 23 23 23 22 23 24 22 20 20 19 18 19 18 17 17 16 16 16 15 15 14 14 14 14 14 13 12 13 14 14 14 13 12 11 8 6 6 5 4 3 2 4 5 6 6 6 6 5 5 6 6 6 6 6 5 4 3 5 7 8 8 8 6
36 36 37 37 37 37 36 34 35 37 40 41 39 36 32 29 27 27 26 24 23 23 23 22 22 23 23 22 21 20 20 19 20 22 20 19 18 17 16 16 15 15 15 15 14 14 14 13 13 15 16 16 15 14 13 11 9 8 7 7 5 3 4 5 6 6 6 6 6 6 6 6 5 5 6 5 5 5 5 6 7 7 7 8 7
35 35 36 36 36 35 33 33 37 40 41 40 38 35 33 29 27 27 26 24 24 23 23 22 22 23 22 22 22 23 21 21 23 24 23 21 19 17 17 16 16 15 16 16 15 15 14 13 13 15 15 14 14 14 12 11 10 10 9 7 6 6 5 5 5 6 6 6 5 5 6 6 5 6 6 5 5 5 6 6 7 7 7 7 7
35 35 34 35 36 33 31 34 38 39 39 39 37 34 32 29 28 28 27 25 24 23 24 23 22 22 21 22 24 25 24 24 25 24 23 22 20 18 16 16 16 16 16 16 15 15 14 13 12 13 14 14 13 13 14 12 11 11 10 7 7 8 9 8 6 5 5 6 5 4 5 6 6 6 6 5 5 5 6 7 7 7 8 8 8
36 36 35 35 34 33 35 39 39 36 37 38 37 34 33 30 28 28 27 26 24 23 24 23 22 22 21 22 24 25 25 26 26 24 22 22 22 19 15 16 16 15 16 15 15 15 14 14 13 12 13 15 13 12 13 13 12 11 10 8 8 9 10 11 10 8 5 4 5 5 5 6 6 5 5 5 5 6 7 7 7 7 8 9 9
36 35 35 34 34 36 40 42 39 35 36 38 37 35 33 30 28 28 27 25 23 23 24 24 24 25 24 22 23 25 27 28 27 25 23 23 24 19 14 15 15 14 15 15 14 15 15 14 14 12 13 15 14 12 12 12 12 11 10 8 9 10 10 11 12 12 10 8 6 6 6 6 6 5 4 5 6 6 7 8 8 8 9 11 12
34 34 34 33 35 37 38 38 37 35 36 37 36 34 31 28 28 28 26 24 22 22 23 25 28 30 29 26 23 23 26 28 26 25 24 24 24 20 14 14 15 13 14 15 14 14 14 14 14 13 13 14 14 14 13 12 12 11 9 9 8 8 9 10 11 12 12 12 10 6 5 5 6 5 4 5 6 6 7 8 9 10 11 13 12
32 32 31 31 34 37 36 34 35 35 35 37 36 32 29 28 28 27 25 23 22 21 22 26 32 34 33 29 24 21 24 27 26 26 25 24 25 20 14 14 15 13 14 15 14 14 14 14 14 13 13 14 15 16 15 13 11 10 9 9 8 8 8 10 12 13 13 13 13 10 8 8 8 9 9 8 7 6 7 9 10 11 11 11 11
31 31 30 30 33 37 36 34 35 34 32 33 33 30 28 28 27 25 24 24 24 24 23 24 29 32 32 30 24 19 22 26 26 27 26 26 26 21 15 14 15 14 14 15 14 14 14 14 14 13 13 14 16 17 16 14 11 9 9 9 9 9 9 10 13 14 13 13 13 12 12 11 11 12 13 13 12 9 9 9 10 10 10 10 10
31 31 30 31 34 36 35 33 33 31 28 29 30 28 27 26 25 25 25 24 24 24 23 22 24 27 31 32 28 23 24 27 28 28 28 28 27 22 16 16 16 15 15 15 14 14 14 16 16 13 13 16 16 15 15 14 11 9 9 10 10 11 11 10 11 13 13 13 13 13 13 13 13 14 14 14 13 12 12 12 11 11 11 10 10
31 31 31 32 34 35 34 31 30 27 26 28 28 27 26 26 25 24 23 24 24 23 22 23 23 25 30 34 32 28 28 29 29 29 29 29 29 22 17 17 17 16 16 16 15 14 14 17 19 15 14 16 15 14 15 15 12 10 10 11 11 12 12 11 11 11 12 12 12 12 12 12 12 13 14 14 14 14 15 14 12 12 12 11 11
31 31 32 32 33 33 31 30 29 28 26 26 27 26 25 24 24 24 23 23 22 21 23 23 21 23 29 33 32 29 28 30 31 30 30 31 31 24 18 18 18 17 17 16 15 15 14 16 20 20 18 17 15 14 15 15 13 11 10 11 12 12 11 11 11 11 10 10 10 10 9 9 9 11 12 13 14 15 16 16 14 12 12 12 12
29 29 30 32 31 31 29 29 32 31 27 26 27 27 24 24 27 28 25 21 19 22 25 22 17 21 29 33 31 26 26 31 34 32 30 32 32 26 18 16 18 17 16 16 16 16 16 15 19 23 22 19 16 15 15 16 14 11 10 11 11 11 10 10 10 11 10 9 10 9 9 9 10 11 11 12 12 13 13 14 14 13 13 13 12
28 27 30 32 31 30 30 32 35 34 30 30 31 28 24 26 31 30 24 21 21 25 26 20 18 24 29 30 29 26 26 32 34 32 31 32 33 29 19 15 17 17 16 17 16 16 17 15 17 21 22 20 18 16 15 16 15 12 11 12 12 13 11 9 8 10 10 10 10 10 10 10 10 11 11 11 11 11 11 12 12 13 14 13 13
28 28 31 32 30 30 32 34 36 35 33 35 34 27 23 26 30 28 24 22 22 24 25 21 21 27 28 26 24 22 24 30 32 32 32 32 34 32 22 17 19 18 15 16 16 15 15 15 15 18 20 19 18 17 15 16 16 13 12 12 13 14 12 9 8 9 9 10 10 10 9 10 10 11 11 11 11 11 11 11 12 12 13 14 13
28 29 31 31 31 33 35 36 37 36 35 37 35 28 24 27 29 27 25 25 23 23 23 21 22 25 26 25 21 17 21 29 32 32 33 32 35 34 25 20 22 19 14 14 15 13 14 15 15 16 16 15 16 15 15 16 15 13 11 11 11 12 13 11 10 10 10 11 11 11 10 11 10 10 10 10 9 10 10 11 12 12 13 14 14
29 30 30 31 34 35 35 36 37 36 36 39 39 32 27 29 29 28 28 28 26 25 24 22 21 21 23 24 21 18 20 26 30 33 33 31 33 34 28 23 23 20 14 11 12 13 13 14 15 14 13 13 13 14 16 16 14 13 12 12 12 12 13 13 12 11 11 12 12 12 12 11 11 10 10 8 8 9 10 11 13 14 15 15 15
29 29 29 31 33 33 33 35 38 38 39 42 41 35 32 32 30 28 29 28 25 25 26 24 21 21 21 21 21 20 20 21 26 33 35 32 32 33 30 27 24 22 17 11 11 12 13 14 14 13 12 12 13 14 15 15 15 15 15 15 15 14 13 14 13 12 12 12 12 12 11 11 10 9 8 8 10 11 12 13 13 14 14 14 15
27 29 30 32 32 32 33 34 37 38 37 37 35 32 35 37 34 30 30 28 25 26 26 24 22 21 20 19 20 22 21 18 21 29 34 35 33 33 32 30 26 23 19 14 11 13 14 14 14 13 12 12 12 12 13 14 16 18 19 18 17 16 15 15 14 13 13 12 11 11 11 10 10 9 8 10 11 12 12 12 13 13 13 13 14
26 28 29 28 29 33 35 35 36 35 32 31 30 29 33 37 35 32 32 30 28 28 27 24 24 23 21 19 19 20 20 19 21 28 34 37 36 34 33 32 29 25 21 16 13 14 16 15 13 12 11 11 11 12 12 13 14 17 18 18 16 15 15 15 15 14 14 13 12 12 12 11 11 10 10 11 11 11 11 12 13 13 13 13 14
26 28 29 26 27 32 35 34 34 32 31 31 30 27 30 35 34 31 29 28 28 28 26 23 25 25 23 22 23 22 20 19 24 32 37 38 37 37 35 35 32 27 23 19 16 15 16 15 13 12 12 12 13 13 12 12 13 14 15 16 15 14 15 15 15 16 15 14 14 14 14 13 13 12 12 11 10 10 10 11 12 12 13 13 14
22 25 29 28 27 28 31 32 32 31 31 32 31 27 27 31 32 30 29 27 27 28 27 26 27 26 23 26 31 32 28 25 28 34 37 37 37 36 36 36 33 28 25 24 20 16 15 15 13 13 14 13 14 14 13 13 14 14 14 15 15 15 16 16 16 17 16 16 16 16 16 15 14 14 13 12 10 10 10 11 12 12 12 13 14
19 20 24 25 26 28 29 31 31 30 30 33 34 31 27 26 26 28 29 28 27 28 28 28 29 28 25 26 33 35 31 29 30 33 35 36 36 35 35 34 32 29 28 27 22 15 14 14 14 14 15 14 14 14 14 14 14 13 14 15 16 16 17 19 19 18 18 18 17 16 15 15 14 14 14 12 11 10 10 11 11 12 13 14 14
19 19 20 22 25 26 26 27 29 30 31 33 35 35 30 24 20 20 23 26 29 30 29 27 27 29 27 28 32 33 30 28 27 29 32 34 34 33 32 31 29 28 29 27 21 15 14 15 14 15 15 14 14 14 14 14 14 14 15 16 16 16 17 18 19 19 19 19 17 15 14 13 13 13 13 12 11 11 11 11 11 11 12 13 14
19 18 18 19 22 24 23 24 27 29 28 27 28 31 31 26 22 21 21 23 26 29 27 23 23 26 26 27 32 34 30 24 21 22 27 31 32 31 29 28 27 28 28 26 20 15 15 16 15 14 14 14 14 13 14 15 15 15 15 15 16 17 17 17 18 18 17 16 14 13 12 13 13 13 13 12 12 12 11 11 11 11 11 12 13
21 20 19 20 23 23 21 19 20 21 19 18 19 23 27 28 27 27 27 24 22 22 22 19 20 22 23 24 27 28 24 21 21 23 25 27 29 29 28 26 25 26 26 23 18 15 15 15 14 14 14 13 13 13 14 15 16 15 15 15 14 15 16 16 17 16 14 13 13 12 12 12 12 13 13 13 13 12 11 10 10 11 12 12 12
23 22 22 23 24 24 22 20 19 17 15 15 15 16 20 26 29 29 28 26 23 21 20 19 18 19 21 21 22 22 22 22 23 24 25 26 27 28 26 24 22 22 23 21 17 15 15 14 13 13 13 12 13 14 15 16 15 15 14 14 13 13 13 14 14 13 12 13 14 13 12 12 12 13 13 13 13 11 10 10 10 11 12 12 12
23 21 23 25 24 25 25 24 23 20 17 16 16 15 19 25 27 27 28 27 25 24 22 21 20 19 20 20 20 21 23 23 23 24 25 27 29 29 24 21 20 19 19 19 17 15 15 13 13 13 13 13 14 15 16 15 14 14 13 12 12 12 12 12 13 12 12 13 14 13 13 14 14 14 13 13 12 11 10 10 10 11 11 11 12
19 18 20 22 22 23 24 25 27 27 26 25 23 22 23 25 26 27 27 26 26 25 23 24 25 23 21 21 21 22 23 22 21 22 23 24 27 26 20 17 18 18 18 17 16 14 13 13 13 13 14 14 15 15 14 13 12 11 11 11 11 11 12 12 13 12 13 13 13 13 14 15 15 14 13 12 12 11 11 11 11 10 10 10 11
18 19 20 22 22 23 22 23 27 29 29 27 28 29 29 28 27 27 25 25 26 25 22 24 27 26 24 25 25 25 26 24 23 22 22 24 27 23 16 15 17 16 15 16 15 14 13 13 12 13 14 14 14 13 12 11 11 10 10 11 11 11 11 11 11 11 11 12 12 13 14 14 15 15 14 13 13 12 12 11 11 10 10 10 11
19 23 25 26 26 26 24 24 26 26 26 25 27 29 30 28 27 27 27 27 27 25 23 23 23 24 26 29 30 30 29 27 26 26 26 27 26 21 14 13 15 14 13 14 13 13 12 12 11 12 12 12 12 12 11 11 10 10 10 10 10 10 11 11 11 12 12 12 13 13 14 14 14 14 15 14 14 13 13 12 11 10 10 11 11
21 25 28 28 28 28 28 29 29 27 25 26 27 28 28 27 26 27 28 27 25 24 25 25 24 25 30 34 34 33 29 23 23 26 26 24 22 17 13 13 14 12 12 12 12 12 12 11 10 11 11 11 11 11 10 10 10 9 9 9 9 10 10 11 12 12 12 13 13 13 13 13 13 13 14 15 14 13 13 12 12 11 11 12 12
24 27 28 28 29 29 29 29 29 28 28 28 28 27 27 26 25 26 26 24 23 24 25 25 25 28 31 34 34 30 23 18 19 21 21 20 19 16 14 14 14 12 11 11 11 12 12 11 10 11 11 11 10 10 10 10 9 9 9 10 10 10 11 11 12 12 12 12 12 12 12 12 12 12 13 13 13 13 13 12 12 12 11 12 13
23 25 26 27 28 28 27 26 27 29 30 29 26 25 26 26 26 26 25 24 24 24 22 21 22 25 28 31 31 25 17 15 18 19 19 21 22 20 19 19 17 13 11 11 11 11 11 11 11 11 11 10 10 10 10 10 10 10 11 11 11 11 11 11 11 12 12 11 11 11 11 11 11 11 12 12 12 12 12 12 12 12 12 12 13
21 23 25 26 27 27 27 27 28 28 27 27 26 27 28 28 27 28 27 26 24 23 21 20 21 24 27 30 28 21 14 16 20 22 23 25 25 23 22 20 16 13 11 11 11 11 11 10 10 10 10 11 11 11 11 11 11 11 11 11 11 11 11 11 10 11 12 12 11 11 11 11 11 11 11 11 11 11 11 11 12 12 13 12 12
23 24 24 25 26 26 26 26 26 25 25 27 27 26 26 26 26 27 27 26 24 22 20 20 23 27 28 27 24 16 13 16 21 22 23 23 22 20 19 16 14 12 12 12 12 12 11 11 11 11 11 11 11 11 12 12 12 12 12 12 12 12 12 12 11 10 10 11 10 10 11 11 11 11 11 11 11 12 12 12 13 13 13 13 12
24 25 25 25 25 25 26 27 27 27 27 28 26 24 23 22 22 22 23 23 22 21 21 22 25 28 28 25 19 13 10 13 16 17 18 18 16 15 14 14 14 14 12 12 14 15 14 14 14 14 13 11 11 12 12 12 12 12 12 12 12 12 12 12 12 11 10 10 10 10 10 10 11 11 11 11 11 12 13 13 13 13 13 12 11
25 25 26 27 27 26 26 26 26 26 26 26 25 24 23 23 22 22 21 21 21 21 21 21 23 24 22 20 16 12 10 12 13 13 14 14 13 13 13 15 16 15 13 13 15 16 15 14 13 14 14 13 12 12 12 12 12 12 12 12 12 11 11 10 11 11 11 11 11 10 9 9 10 10 10 10 10 11 12 12 12 12 13 12 11
26 26 26 27 28 27 26 26 25 24 23 22 22 22 23 23 22 21 20 20 20 19 18 18 18 17 17 16 14 12 11 12 12 12 12 12 12 12 13 14 15 14 13 13 14 14 14 14 13 14 15 15 12 11 12 12 11 12 12 12 12 11 10 10 10 10 11 12 12 11 10 9 8 9 9 10 10 10 11 12 12 12 12 12 12
26 27 26 26 27 26 26 25 24 22 21 20 20 20 20 19 19 18 18 17 17 16 15 15 15 15 14 13 13 12 11 11 11 11 11 11 11 12 13 15 15 14 13 13 13 13 14 15 14 14 14 15 13 11 11 10 10 11 11 11 11 12 12 12 10 9 9 11 11 11 11 10 9 8 7 8 9 9 10 11 12 12 12 12 12
23 25 24 23 23 23 22 21 20 19 18 18 19 19 18 17 17 16 16 15 15 15 15 14 14 14 14 13 13 12 12 11 11 12 11 11 12 12 13 14 15 13 12 13 14 14 15 16 15 14 13 13 13 11 10 10 10 10 10 10 11 14 15 14 12 11 11 10 10 11 12 11 10 9 8 8 9 10 10 10 11 12 12 12 12
23 24 22 21 20 19 19 18 19 19 18 18 18 19 18 17 16 16 15 15 15 14 14 14 14 14 13 13 12 12 12 11 11 11 11 11 11 11 12 13 13 13 12 12 13 13 14 14 14 14 13 12 11 10 10 10 10 9 9 10 12 14 14 13 13 15 15 12 10 10 12 12 11 11 10 10 10 11 12 11 11 12 12 13 13
22 20 19 20 19 19 19 18 18 18 17 17 18 18 17 16 15 15 14 14 14 13 13 13 12 12 12 12 11 11 11 11 11 11 10 11 11 11 12 12 13 12 12 11 11 11 11 11 11 13 14 13 12 11 10 9 9 10 11 12 13 12 11 11 13 15 17 16 13 11 11 11 12 12 12 12 12 11 12 12 12 13 13 14 15
Wind_Direction
196 194 196 197 197 197 197 193 190 192 196 195 191 190 191 193 194 193 191 192 194 195 194 189 187 189 193 195 194 194 198 198 196 192 190 194 197 198 201 202 204 206 204 203 206 204 202 203 201 196 194 195 196 199 204 208 214 220 227 228 227 227 225 234 245 220 171 185 202 204 206 207 217 231 231 228 242 266 273 253 259 276 275 276 275
194 195 195 196 197 197 195 192 191 192 194 194 193 191 192 194 193 192 193 194 194 194 192 187 185 188 191 194 194 195 196 194 193 193 192 193 193 193 197 199 201 202 199 199 198 194 193 195 190 183 184 189 194 199 202 203 207 209 211 217 219 220 219 225 237 233 199 188 203 208 205 211 224 228 225 233 241 255 269 264 267 272 267 277 280
194 195 195 196 197 195 193 191 190 191 193 195 195 193 192 192 192 192 193 194 194 194 191 186 183 183 187 192 191 191 193 193 193 195 194 193 193 195 198 198 198 198 197 196 192 187 187 187 184 178 177 184 190 195 195 191 197 196 193 204 212 212 217 220 230 239 223 197 205 213 205 209 224 225 216 228 241 256 271 270 270 273 269 271 277
190 192 195 196 195 192 191 191 189 191 193 195 196 194 191 190 192 193 193 193 192 190 186 185 184 182 184 192 192 189 190 192 194 196 196 196 197 197 197 196 196 196 195 193 189 186 186 186 183 179 180 186 188 190 189 185 189 190 188 197 200 199 206 213 224 237 230 205 211 218 211 204 216 222 215 225 244 255 264 267 268 275 279 278 277
190 193 194 194 192 190 191 191 189 190 192 194 195 193 189 190 192 193 193 193 189 184 181 183 185 184 185 191 193 190 189 191 193 195 196 196 197 197 196 193 192 193 191 189 187 187 187 187 185 182 183 187 187 188 188 186 188 188 189 191 190 190 194 203 213 217 219 221 217 211 206 198 202 209 214 233 260 262 259 263 265 268 279 286 282
192 193 193 192 191 190 191 191 190 190 191 193 194 192 189 189 190 192 193 192 186 182 182 183 185 187 187 190 193 191 189 190 192 193 193 194 194 193 191 189 189 188 186 185 186 187 188 188 186 186 188 188 188 189 187 186 188 187 188 188 180 177 177 186 204 208 219 229 219 198 200 199 198 209 215 229 266 282 279 279 271 262 272 289 289
193 192 193 192 191 190 190 192 191 190 190 192 192 191 188 187 188 192 193 188 184 184 184 184 186 189 189 192 194 190 187 188 189 190 190 190 190 188 186 184 183 183 183 184 185 186 188 188 187 187 188 189 189 189 186 184 185 181 176 178 167 160 173 196 218 219 222 225 217 206 202 197 204 220 214 219 255 269 276 291 295 286 286 290 288
194 193 193 192 190 190 192 193 191 188 189 191 192 190 186 185 187 191 190 185 185 187 185 183 187 189 191 194 193 187 184 186 188 188 189 188 186 185 184 181 180 179 180 181 183 185 186 188 190 189 188 190 190 189 187 180 176 176 168 164 162 162 195 231 223 215 217 220 221 216 204 199 211 219 214 228 255 255 254 288 303 301 298 292 282
194 193 193 193 192 191 192 192 189 186 187 190 192 191 186 183 185 190 189 184 184 187 185 184 186 187 189 190 186 183 183 186 187 187 186 185 184 184 183 181 179 178 177 180 183 186 186 187 190 189 188 192 192 189 186 178 170 171 167 156 155 169 222 238 226 216 214 216 217 213 211 214 215 216 224 237 257 271 274 285 292 294 298 300 289
192 192 193 193 192 191 189 188 187 185 186 188 191 191 187 182 183 188 189 184 181 183 183 183 185 186 186 184 181 182 183 186 194 194 189 184 182 182 182 180 180 179 177 181 184 186 187 186 188 192 194 196 198 195 192 188 179 173 168 160 159 184 224 230 225 221 219 221 220 217 224 229 222 224 238 246 252 271 278 278 288 298 302 303 298
190 191 192 191 191 189 185 184 185 185 185 187 188 189 188 183 181 186 187 182 179 181 181 182 184 186 185 182 184 189 189 193 204 204 198 191 184 180 180 179 180 181 180 181 184 184 184 182 184 194 197 196 197 197 197 199 196 193 194 191 184 192 210 222 223 222 226 231 227 221 231 242 238 232 238 246 249 260 272 277 290 304 308 310 312
189 189 191 190 188 185 181 180 183 184 184 185 186 187 187 183 179 183 185 179 175 178 181 182 182 185 185 184 190 195 196 202 210 208 201 197 187 179 180 179 179 181 182 183 183 181 180 179 181 188 190 188 190 193 196 200 201 204 214 222 213 206 207 208 213 220 231 235 229 224 239 250 248 236 235 249 263 269 275 281 289 299 305 308 311
189 189 190 190 187 183 182 182 182 182 183 184 184 185 186 183 180 182 183 177 173 177 181 180 181 184 185 186 192 197 200 208 212 205 199 198 191 182 181 181 180 182 182 182 182 180 178 178 178 179 184 186 185 186 192 197 204 213 222 232 236 231 218 209 207 210 218 232 233 231 241 253 255 246 235 244 269 281 281 287 294 298 304 308 310
189 190 190 189 185 182 182 184 183 181 182 182 181 182 186 185 182 180 179 174 171 176 180 181 185 189 188 187 192 197 202 210 211 202 198 198 193 187 182 181 181 181 181 181 181 181 180 180 180 178 181 185 183 180 183 188 198 211 218 224 234 239 232 221 214 211 211 212 217 232 245 252 258 261 245 235 252 272 282 293 301 303 305 304 300
190 190 189 186 182 179 179 182 183 181 179 178 178 180 183 185 183 178 175 174 174 178 183 186 193 197 196 193 192 194 203 210 207 199 198 197 192 188 182 180 181 179 180 182 182 182 183 184 184 181 178 181 184 182 179 181 187 193 201 211 220 226 227 225 217 210 210 209 208 223 244 243 240 244 238 232 248 270 279 285 290 291 293 294 290
190 188 185 182 180 178 179 180 180 179 176 176 177 178 180 186 185 177 173 178 183 186 188 192 198 201 199 196 192 192 203 208 203 198 199 196 190 188 184 181 180 179 180 183 184 185 187 186 185 183 178 181 191 192 185 182 186 190 199 211 215 211 211 219 219 212 210 212 210 213 224 229 232 233 229 233 247 269 282 283 280 276 279 287 290
189 184 180 178 179 181 182 179 176 174 172 174 177 176 179 185 185 177 175 179 186 190 188 188 195 198 197 195 190 188 199 203 199 198 198 193 188 187 186 182 180 180 181 183 184 186 188 187 185 183 181 186 200 204 194 188 191 197 207 212 211 206 203 215 225 220 217 222 224 227 234 240 246 246 242 246 252 259 270 275 277 278 280 287 295
188 182 178 177 179 182 180 176 173 170 170 173 173 171 174 180 180 177 177 180 187 191 185 179 186 192 195 197 194 192 198 200 198 198 198 192 187 186 185 182 180 180 180 181 184 186 189 190 188 184 186 193 202 206 199 195 197 204 212 211 209 209 203 202 215 220 223 231 237 243 247 249 252 251 248 251 255 255 258 261 271 283 284 288 297
185 181 179 178 180 179 176 173 170 167 170 174 171 169 172 177 178 177 178 182 186 185 179 178 185 191 195 199 199 198 200 199 197 198 197 192 188 186 186 183 179 179 179 178 183 186 188 193 192 187 190 198 202 202 199 198 199 207 214 212 211 214 206 198 203 213 221 231 239 244 247 248 250 250 249 252 254 255 255 255 263 274 278 285 295
184 182 179 177 177 176 172 169 167 165 170 173 170 169 170 172 174 175 177 180 180 177 177 181 184 189 195 200 201 199 200 201 199 197 196 193 189 186 188 186 179 178 179 178 181 185 185 191 196 196 198 201 201 200 199 198 200 208 214 214 217 215 203 198 205 211 219 231 238 238 237 237 240 241 242 249 256 260 257 253 254 260 269 281 286
181 180 177 174 174 172 168 168 169 169 170 170 169 171 170 173 179 180 179 180 179 178 180 178 175 183 193 200 200 197 200 204 201 196 196 195 190 186 187 189 181 177 179 179 182 186 184 186 196 201 204 205 204 201 202 202 204 209 214 217 219 211 196 194 207 216 226 237 240 239 237 234 234 233 235 240 246 251 250 247 246 249 256 268 276
177 174 173 173 172 170 169 172 175 174 172 172 173 172 171 178 185 185 182 181 180 182 183 178 177 186 191 195 196 195 202 207 202 196 196 197 192 186 185 187 183 177 180 183 184 187 187 185 194 201 203 205 206 204 205 207 208 212 218 222 222 216 206 201 208 216 224 229 232 236 236 234 236 236 237 239 239 238 237 239 241 242 246 256 264
176 174 173 170 168 169 172 174 176 175 174 176 175 169 167 176 181 181 180 179 176 179 183 182 183 186 187 189 189 190 200 206 203 198 197 197 194 189 183 181 183 179 181 186 185 186 187 185 192 199 199 202 206 207 208 211 213 217 223 226 229 225 217 214 217 218 221 226 232 238 238 237 241 240 239 242 245 243 239 238 239 241 245 251 256
176 172 170 168 168 171 173 174 175 175 174 175 174 169 168 173 176 179 182 180 175 176 180 180 180 181 182 184 183 183 195 202 202 201 198 196 195 192 185 183 184 181 181 187 186 183 182 182 189 194 193 197 204 207 210 213 217 223 227 226 227 223 218 220 223 223 227 233 237 241 243 242 243 242 243 246 247 246 244 240 241 244 249 255 259
173 169 168 169 170 171 173 174 174 174 175 178 177 172 168 170 174 178 182 181 177 176 179 180 178 176 178 182 181 180 190 196 198 200 199 196 195 194 190 191 191 185 181 183 182 180 181 182 185 186 187 194 200 206 213 217 220 225 227 224 222 219 218 221 223 224 229 235 238 242 244 242 242 244 244 244 245 249 248 245 246 249 252 256 259
170 168 169 172 172 171 172 173 174 176 179 181 180 174 170 172 174 178 182 181 178 178 181 183 179 174 176 182 182 181 183 187 193 198 198 196 195 195 195 198 198 193 188 184 182 186 188 188 188 188 191 198 202 207 215 220 222 224 226 225 222 218 217 220 222 225 230 235 240 243 243 244 246 243 237 236 244 250 249 247 250 251 249 252 257
170 169 170 171 171 170 171 173 176 178 179 180 178 175 174 175 175 178 181 180 179 183 185 182 177 172 174 181 183 182 183 182 184 191 194 194 194 195 197 200 201 198 196 195 191 193 193 190 190 194 198 203 207 210 215 219 223 224 225 225 224 221 221 223 226 229 235 239 243 244 243 245 246 239 234 240 245 247 246 246 250 252 251 255 259
171 172 170 168 168 171 174 175 177 177 176 176 177 176 176 176 175 177 180 179 179 184 186 182 178 177 178 178 175 179 186 186 183 187 190 191 192 192 195 200 202 199 197 193 185 190 196 192 188 190 195 197 199 202 206 211 217 221 221 221 222 222 223 226 230 234 238 242 245 246 245 245 243 239 242 244 243 244 244 242 247 251 253 257 260
174 175 172 168 170 176 178 178 177 176 175 176 177 176 177 179 178 180 182 183 182 185 184 179 178 180 184 184 179 179 185 190 193 194 193 191 190 189 192 197 199 196 194 188 178 180 191 191 183 182 187 189 191 195 200 204 209 212 212 214 219 222 222 223 227 231 235 238 242 244 243 244 244 244 245 243 241 245 245 240 244 250 252 255 259
174 174 173 173 174 177 180 180 179 179 177 174 172 171 174 180 184 186 187 187 188 188 185 181 181 184 189 193 194 193 193 194 198 200 197 192 191 191 191 194 194 192 191 189 183 180 185 186 185 190 194 195 197 200 203 205 208 212 213 215 221 227 229 229 229 232 235 238 241 243 242 243 247 247 247 243 241 245 245 241 245 250 251 253 255
172 172 173 176 177 177 181 184 184 183 180 175 170 164 162 171 181 188 191 189 185 184 184 185 187 189 191 193 196 197 199 201 203 201 197 194 194 195 195 196 196 196 197 194 188 185 188 190 195 201 203 204 203 203 204 206 209 217 223 227 229 231 233 234 233 234 237 239 241 241 239 239 242 246 247 242 239 248 252 246 243 247 249 252 255
180 179 179 180 179 179 182 184 185 187 186 180 171 161 153 150 155 167 183 188 185 184 184 184 186 190 193 194 194 195 198 204 205 201 197 196 197 198 198 198 198 201 202 197 192 192 195 198 204 206 206 208 207 204 205 212 218 225 231 235 236 234 233 234 234 234 238 239 237 233 231 232 235 240 243 238 234 246 256 253 248 248 249 253 257
185 185 180 174 174 178 180 181 184 186 187 183 173 161 153 148 142 140 151 168 179 185 188 188 188 190 193 195 196 196 196 197 196 194 195 197 198 198 198 199 201 203 200 196 196 201 201 202 207 208 207 207 206 205 211 221 229 232 234 237 239 236 235 235 234 232 232 232 230 226 227 231 233 234 236 235 233 240 248 250 252 253 254 257 258
188 185 178 168 169 174 177 178 180 182 182 182 179 168 158 155 150 141 138 142 153 166 176 182 187 191 194 195 195 193 188 180 177 179 185 193 196 197 197 198 201 202 200 197 200 206 204 204 208 208 206 207 209 213 221 226 232 236 237 239 240 236 235 236 232 223 218 219 224 227 227 230 233 233 233 234 233 234 238 241 247 255 257 257 258
191 186 178 172 172 175 176 175 174 174 169 168 175 173 159 154 152 148 145 143 142 145 152 160 172 184 191 193 190 184 175 169 169 172 177 184 190 192 189 185 185 191 197 202 206 207 206 206 205 203 204 208 213 221 228 231 234 237 234 232 231 228 228 228 223 218 218 223 228 230 228 231 236 236 234 233 230 228 232 236 244 255 259 257 258
194 188 181 178 177 176 175 173 171 171 167 162 164 163 154 152 152 149 148 148 145 143 144 150 158 170 179 181 180 177 172 169 168 169 174 181 185 183 178 173 175 183 192 200 205 205 205 206 204 204 210 215 220 227 232 232 232 230 224 222 224 222 222 223 221 223 228 229 230 230 228 231 237 236 232 231 229 228 232 237 244 254 257 259 263
190 184 178 178 175 172 172 171 170 173 173 168 161 153 147 148 150 148 147 150 148 145 145 148 150 152 159 164 166 167 167 166 166 168 174 181 183 180 176 176 180 184 189 195 199 199 200 203 205 210 217 222 225 228 229 226 224 220 216 219 222 222 224 227 227 227 228 229 230 230 228 229 232 230 228 229 229 230 234 237 243 249 250 253 259
180 176 174 172 167 163 164 165 166 167 166 159 152 148 145 147 149 149 149 152 150 145 145 149 149 147 151 156 158 158 157 157 158 162 170 178 180 180 183 187 186 186 189 192 193 194 197 202 205 209 215 219 219 219 219 218 218 217 215 218 222 224 225 226 226 226 227 229 231 230 228 228 227 223 223 226 228 232 236 238 242 247 248 246 246
170 171 171 167 162 158 156 153 151 151 149 145 144 145 145 146 149 150 151 152 150 147 146 147 148 150 154 155 156 155 154 153 156 161 167 175 180 183 188 187 184 185 188 188 189 194 198 200 200 202 207 210 209 210 213 217 217 217 216 216 217 219 220 220 223 227 227 229 231 231 229 229 226 222 223 226 228 231 235 239 243 248 252 254 249
158 162 163 161 157 154 150 145 143 144 144 143 143 145 146 149 152 152 152 151 150 148 147 148 151 158 160 159 158 158 154 152 157 163 167 173 181 186 187 182 179 181 185 187 189 194 197 197 196 198 202 206 207 209 213 215 213 212 212 211 213 217 220 222 225 228 228 228 231 231 229 228 227 226 226 228 228 229 232 236 243 245 246 253 252
151 153 155 154 151 148 143 142 144 146 146 145 146 147 149 150 150 148 147 147 146 145 146 149 156 164 167 165 161 159 155 152 157 162 165 170 177 182 183 181 180 179 184 190 192 190 192 194 195 197 201 203 204 208 211 210 209 208 208 210 216 221 225 226 226 228 228 228 228 229 229 228 227 228 228 228 230 232 233 236 242 245 244 245 245
143 141 141 142 142 140 137 138 142 144 142 142 145 146 145 143 143 143 142 141 140 140 139 142 152 163 170 168 162 157 155 158 162 165 170 176 181 186 188 188 188 188 190 193 191 188 191 195 196 197 198 199 202 209 211 209 209 209 209 211 215 220 224 226 223 221 223 225 226 227 228 228 229 230 231 229 229 230 232 234 239 244 245 241 235
130 130 131 134 136 137 137 138 140 139 138 139 140 140 141 141 141 142 140 138 139 140 138 140 150 161 167 169 166 162 164 170 173 177 181 185 188 192 192 192 193 194 193 192 189 186 188 193 195 196 197 199 205 212 213 212 212 211 211 213 214 215 220 224 221 217 218 220 223 223 222 224 228 228 226 226 225 228 232 235 237 241 243 239 233
123 124 126 128 130 131 132 133 133 132 133 134 133 134 137 138 138 139 140 140 141 141 139 144 154 160 163 166 167 165 169 177 180 183 186 187 190 194 193 192 192 192 190 191 193 194 196 200 202 202 202 205 210 215 216 217 216 213 212 214 213 213 217 221 220 217 216 216 217 217 215 217 223 226 226 227 227 230 234 236 237 239 239 235 230
116 117 117 117 118 119 121 123 125 126 127 127 126 125 127 129 129 132 135 135 134 135 137 145 154 158 161 164 166 162 163 174 179 182 184 186 186 187 187 189 192 193 192 197 204 207 207 206 205 204 204 207 212 217 218 218 218 216 216 217 216 216 218 219 219 218 216 214 214 216 215 216 219 225 230 231 230 231 234 235 232 231 232 231 230
112 113 114 112 111 111 113 116 118 120 120 121 120 118 117 118 119 122 124 124 125 127 130 137 147 154 158 163 165 163 161 165 169 172 176 177 178 179 184 193 199 199 197 200 206 206 203 201 204 210 215 216 218 220 220 219 220 220 220 220 220 220 221 220 217 214 212 212 214 218 219 218 218 222 229 233 232 230 231 231 227 221 220 225 232
113 112 112 111 110 110 110 110 110 110 111 111 111 111 113 116 117 119 121 124 127 129 130 133 139 146 151 156 160 161 160 160 161 162 164 166 170 175 182 190 194 193 191 195 200 202 204 207 211 217 221 220 216 217 220 221 220 220 221 221 222 222 221 218 214 211 210 211 214 217 219 219 218 220 224 229 233 231 225 221 220 220 221 228 237
111 108 107 109 109 109 110 109 108 106 104 104 104 106 111 114 115 117 122 125 126 128 129 132 135 139 145 150 156 157 156 156 158 158 161 164 166 169 177 185 188 186 188 196 200 203 209 212 212 212 217 218 216 215 220 222 220 220 221 222 221 221 219 216 213 212 212 212 211 212 214 216 221 224 221 220 226 230 225 219 221 224 229 235 241
111 108 106 107 107 108 109 109 108 105 104 104 106 107 109 110 112 116 122 125 126 129 134 137 141 145 149 151 153 154 153 154 157 160 164 168 169 170 178 186 188 187 190 198 201 203 207 210 210 210 214 217 217 217 218 220 221 223 223 222 224 228 230 227 222 215 213 210 209 212 214 215 221 228 229 225 228 232 232 231 233 235 238 243 247
108 108 107 107 106 107 107 106 107 108 109 110 113 115 117 120 125 129 133 136 138 141 142 144 146 149 150 150 151 152 153 156 160 163 166 169 171 172 176 181 185 188 191 194 198 203 206 209 211 212 212 213 213 216 220 222 223 224 223 224 231 239 243 240 231 223 219 216 213 217 219 219 222 227 230 231 234 236 236 237 239 242 245 249 251
107 106 109 111 111 112 112 112 113 116 117 118 121 124 126 128 132 135 138 140 141 142 142 144 146 148 151 154 154 154 158 163 166 167 169 171 173 174 175 177 182 188 191 192 197 202 205 208 212 215 217 218 216 216 220 222 223 222 225 230 238 246 250 246 240 235 232 227 223 222 224 225 226 229 233 236 238 239 239 239 241 244 248 252 253